Home   Weather   Bielsko-Biała   Past weeks

Flag for Poland Past Weather in Bielsko-Biała, Poland — Yesterday and Last 2 Weeks

Now
72 °F

Passing clouds.


Feels Like: 73 °F
Forecast: 64 / 82 °F
Wind: 2 mph from East

Location: Katowice

Current Time: Jul 22, 2017 at 11:01:25 am

Latest Report: Jul 22, 2017 at 9:00 am


Visibility: 9 mi

Pressure: 30.00 "Hg

Humidity: 77%

Dew Point: 65 °F

Location of Bielsko-BiałaLocation

Past Weather in Bielsko-Biała — Graph

°F

Bielsko-Biała Temperature Yesterday

Maximum temperature yesterday: 75 °F (at 5:00 pm)
Minimum temperature yesterday: 61 °F (at 11:00 pm)
Average temperature yesterday: 69 °F

High & Low Weather Summary for the Past Weeks

 TemperatureHumidityPressure
High89 °F (Jul 20, 3:00 pm)100% (Jul 9, 6:00 am)30.22 "Hg (Jul 9, 6:00 am)
Low43 °F (Jul 14, 5:00 am)29% (Jul 20, 3:00 pm)29.74 "Hg (Jul 13, 3:00 am)
Average66 °F71%29.97 "Hg
* Reported Jul 7 9:00 am — Jul 22 9:00 am, Bielsko-Biała. Weather by CustomWeather, © 2017

Note: Actual official high and low records may vary slightly from our data, if they occured in-between our weather recording intervals... More about our weather records

Advertising

Bielsko-Biała Weather History for the Previous 24 Hours

Scroll right to see more
 ConditionsComfort  
Time TempWeatherWind HumidityBarometerVisibility
9:00 am
Sat, Jul 22
72 °FPassing clouds.2 mph77%30.00 "Hg9 mi
8:00 am67 °FPassing clouds.1 mph92%30.00 "Hg9 mi
7:00 am63 °FFog.1 mph100%30.00 "Hg3 mi
6:00 am59 °FFog.1 mph100%30.00 "Hg0 mi
5:00 am57 °FFog.No wind96%29.99 "Hg0 mi
4:00 am57 °FFog.No wind96%29.99 "Hg1 mi
3:00 am58 °FFog.No wind96%30.00 "Hg9 mi
2:00 am59 °FFog.No wind96%30.00 "Hg9 mi
1:00 am59 °FFog.1 mph95%29.99 "Hg9 mi
12:00 am60 °FPassing clouds.No wind95%29.99 "Hg9 mi
11:00 pm
Fri, Jul 21
61 °FPassing clouds.1 mph93%29.99 "Hg9 mi
10:00 pm64 °FPassing clouds.1 mph92%29.99 "Hg9 mi
9:00 pm68 °FPassing clouds.No wind80%29.97 "Hg12 mi
8:00 pm72 °FPassing clouds.1 mph68%29.95 "Hg19 mi
7:00 pm75 °FPassing clouds.1 mph62%29.94 "Hg19 mi
6:00 pm74 °FScattered clouds.1 mph64%29.95 "Hg19 mi
5:00 pm75 °FPartly sunny.2 mph65%29.95 "Hg19 mi
4:00 pm73 °FPartly sunny.1 mph73%29.96 "Hg19 mi
3:00 pm70 °FLow clouds.2 mph84%29.98 "Hg6 mi
2:00 pm67 °FSprinkles. Low clouds.3 mph89%29.98 "Hg4 mi
1:00 pm67 °FLight rain. Low clouds.2 mph92%29.98 "Hg4 mi
12:00 pm67 °FRain. Low clouds.No wind92%29.97 "Hg4 mi
11:00 am66 °FSprinkles. Low clouds.1 mph91%29.97 "Hg4 mi
Weather by CustomWeather, © 2017

See weather overviewHow to use our weather pages